Time,TemperatureF,DewpointF,PressureIn,WindDirection,WindDirectionDegrees,WindSpeedMPH,WindSpeedGustMPH,Humidity,HourlyPrecipIn,Conditions,Clouds,dailyrainin,SoftwareType,DateUTC
2013-05-26 00:01:00,50.0,41.0,-100.00,SE,135,1.0,2.0,71,-99.99,,,-99.99,,2013-05-26 07:01:00,
2013-05-26 00:10:00,49.0,41.0,-100.00,NE,40,1.0,2.0,73,-99.99,,,-99.99,,2013-05-26 07:10:00,
2013-05-26 00:11:00,50.0,41.0,-100.00,SE,135,1.0,2.0,71,-99.99,,,-99.99,,2013-05-26 07:11:00,
2013-05-26 01:01:00,49.0,41.0,-100.00,NE,40,1.0,2.0,73,-99.99,,,-99.99,,2013-05-26 08:01:00,
2013-05-26 02:01:00,52.0,41.0,-100.00,ESE,120,1.0,3.0,65,-99.99,,,-99.99,,2013-05-26 09:01:00,
2013-05-26 02:11:00,52.0,41.0,-100.00,ESE,120,1.0,3.0,65,-99.99,,,-99.99,,2013-05-26 09:11:00,
2013-05-26 02:20:00,50.0,42.0,-100.00,NE,45,1.0,3.0,73,-99.99,,,-99.99,,2013-05-26 09:20:00,
2013-05-26 03:02:00,50.0,42.0,-100.00,NE,45,1.0,3.0,73,-99.99,,,-99.99,,2013-05-26 10:02:00,
2013-05-26 03:12:00,50.0,42.0,-100.00,NE,45,1.0,3.0,73,-99.99,,,-99.99,,2013-05-26 10:12:00,
2013-05-26 04:03:00,51.0,42.0,-100.00,ENE,75,3.0,5.0,71,-99.99,,,-99.99,,2013-05-26 11:03:00,
2013-05-26 04:11:00,51.0,42.0,-100.00,ENE,75,3.0,5.0,71,-99.99,,,-99.99,,2013-05-26 11:11:00,
2013-05-26 05:01:00,49.0,43.0,-100.00,East,90,1.0,2.0,79,-99.99,,,-99.99,,2013-05-26 12:01:00,
2013-05-26 05:11:00,49.0,43.0,-100.00,East,90,1.0,2.0,79,-99.99,,,-99.99,,2013-05-26 12:11:00,
2013-05-26 06:02:00,48.0,42.0,-100.00,East,100,2.0,3.0,79,-99.99,,,-99.99,,2013-05-26 13:02:00,
2013-05-26 06:11:00,48.0,42.0,-100.00,East,100,2.0,3.0,79,-99.99,,,-99.99,,2013-05-26 13:11:00,
2013-05-26 07:02:00,49.0,43.0,-100.00,East,90,1.0,3.0,79,-99.99,,,-99.99,,2013-05-26 14:02:00,
2013-05-26 07:10:00,51.0,42.0,-100.00,ESE,110,5.0,6.0,71,-99.99,,,-99.99,,2013-05-26 14:10:00,
2013-05-26 07:11:00,49.0,43.0,-100.00,East,90,1.0,3.0,79,-99.99,,,-99.99,,2013-05-26 14:11:00,
2013-05-26 08:01:00,51.0,42.0,-100.00,ESE,110,5.0,6.0,71,-99.99,,,-99.99,,2013-05-26 15:01:00,
2013-05-26 09:03:00,54.0,42.0,-100.00,ENE,60,1.0,5.0,63,-99.99,,,-99.99,,2013-05-26 16:03:00,
2013-05-26 09:12:00,54.0,42.0,-100.00,ENE,60,1.0,5.0,63,-99.99,,,-99.99,,2013-05-26 16:12:00,
2013-05-26 09:20:00,58.0,44.0,-100.00,NNE,20,0.0,5.0,59,-99.99,,,-99.99,,2013-05-26 16:20:00,
2013-05-26 10:02:00,58.0,44.0,-100.00,NNE,20,0.0,5.0,59,-99.99,,,-99.99,,2013-05-26 17:02:00,
2013-05-26 10:11:00,58.0,44.0,-100.00,NNE,20,0.0,5.0,59,-99.99,,,-99.99,,2013-05-26 17:11:00,
2013-05-26 11:01:00,59.0,42.0,-100.00,NW,305,2.0,5.0,53,-99.99,,,-99.99,,2013-05-26 18:01:00,
2013-05-26 11:12:00,59.0,42.0,-100.00,NW,305,2.0,5.0,53,-99.99,,,-99.99,,2013-05-26 18:12:00,
2013-05-26 12:01:00,63.0,42.0,-100.00,North,360,3.0,7.0,46,-99.99,,,-99.99,,2013-05-26 19:01:00,
2013-05-26 12:11:00,63.0,42.0,-100.00,North,360,3.0,7.0,46,-99.99,,,-99.99,,2013-05-26 19:11:00,
2013-05-26 13:02:00,65.0,41.0,-100.00,SE,130,1.0,8.0,41,-99.99,,,-99.99,,2013-05-26 20:02:00,
2013-05-26 13:11:00,65.0,41.0,-100.00,SE,130,1.0,8.0,41,-99.99,,,-99.99,,2013-05-26 20:11:00,
2013-05-26 14:01:00,67.0,43.0,-100.00,West,280,7.0,17.0,41,-99.99,,,-99.99,,2013-05-26 21:01:00,
2013-05-26 14:10:00,69.0,42.0,-100.00,SSW,200,9.0,12.0,37,-99.99,,,-99.99,,2013-05-26 21:10:00,
2013-05-26 14:11:00,67.0,43.0,-100.00,West,280,7.0,17.0,41,-99.99,,,-99.99,,2013-05-26 21:11:00,
2013-05-26 15:02:00,69.0,42.0,-100.00,SSW,200,9.0,12.0,37,-99.99,,,-99.99,,2013-05-26 22:02:00,
2013-05-26 16:02:00,68.0,44.0,-100.00,South,185,6.0,9.0,41,-99.99,,,-99.99,,2013-05-26 23:02:00,
2013-05-26 16:11:00,68.0,44.0,-100.00,South,185,6.0,9.0,41,-99.99,,,-99.99,,2013-05-26 23:11:00,
2013-05-26 16:20:00,68.0,43.0,-100.00,SW,225,5.0,12.0,40,-99.99,,,-99.99,,2013-05-26 23:20:00,
2013-05-26 17:02:00,68.0,43.0,-100.00,SW,225,5.0,12.0,40,-99.99,,,-99.99,,2013-05-27 00:02:00,
2013-05-26 17:11:00,68.0,43.0,-100.00,SW,225,5.0,12.0,40,-99.99,,,-99.99,,2013-05-27 00:11:00,
2013-05-26 18:01:00,65.0,46.0,-100.00,South,175,8.0,12.0,50,-99.99,,,-99.99,,2013-05-27 01:01:00,
2013-05-26 18:11:00,65.0,46.0,-100.00,South,175,8.0,12.0,50,-99.99,,,-99.99,,2013-05-27 01:11:00,
2013-05-26 19:01:00,66.0,46.0,-100.00,WSW,245,10.0,15.0,48,-99.99,,,-99.99,,2013-05-27 02:01:00,
2013-05-26 19:11:00,66.0,46.0,-100.00,WSW,245,10.0,15.0,48,-99.99,,,-99.99,,2013-05-27 02:11:00,
2013-05-26 20:02:00,65.0,45.0,-100.00,WSW,245,6.0,10.0,48,-99.99,,,-99.99,,2013-05-27 03:02:00,
2013-05-26 20:11:00,65.0,45.0,-100.00,WSW,245,6.0,10.0,48,-99.99,,,-99.99,,2013-05-27 03:11:00,
2013-05-26 21:02:00,58.0,46.0,-100.00,South,170,6.0,7.0,64,-99.99,,,-99.99,,2013-05-27 04:02:00,
2013-05-26 21:10:00,57.0,46.0,-100.00,SW,220,1.0,6.0,66,-99.99,,,-99.99,,2013-05-27 04:10:00,
2013-05-26 21:12:00,58.0,46.0,-100.00,South,170,6.0,7.0,64,-99.99,,,-99.99,,2013-05-27 04:12:00,
2013-05-26 22:02:00,57.0,46.0,-100.00,SW,220,1.0,6.0,66,-99.99,,,-99.99,,2013-05-27 05:02:00,
2013-05-26 23:01:00,57.0,44.0,-100.00,East,80,3.0,5.0,61,-99.99,,,-99.99,,2013-05-27 06:01:00,
2013-05-26 23:11:00,57.0,44.0,-100.00,East,80,3.0,5.0,61,-99.99,,,-99.99,,2013-05-27 06:11:00,
2013-05-26 23:20:00,50.0,44.0,-100.00,South,175,2.0,3.0,79,-99.99,,,-99.99,,2013-05-27 06:20:00,